[[{"header":{"parameterUnit":"m.s-1","parameterCategory":1,"la1":30.2991,"la2":30.254,"lo1":-89.0895,"lo2":-89.0444,"dy":0.0017,"dx":0.0017,"nx":28,"ny":28,"refTime":"2023-08-05T21:00:00:Z","depth":0,"parameterNumber":2,"parameterNumberName":"U-component_of_WINDS"},"data":[0,0,0,0,0,0,0,0,0,0,0,0,0,0,0,0,0,0,0,0,0,0,0,0,0,0,0,0,0,0,0,0,0,0,0,0,0,0,0,0,0,0,0,0,0,0,0,0,0,0,0,0,0,0,0,0,0,0,4.7615,4.7617,0,4.7753,4.7755,4.7756,4.7688,4.7685,4.7681,4.7678,4.7822,4.7829,4.7836,0,0,0,0,0,0,0,0,0,0,0,0,0,4.7295,4.7301,4.7615,4.7617,4.7619,4.7753,4.7755,4.7757,4.7689,4.7685,4.768,4.7676,4.7819,4.7828,4.7836,0,0,0,0,0,0,0,0,0,0,0,0,0,4.7434,4.7303,4.7615,4.7601,4.7601,4.7753,4.7755,4.7757,4.769,4.7684,4.7679,4.7674,4.7817,4.7827,4.7838,4.8012,0,0,4.7871,4.7875,0,0,0,0,0,0,0,0,4.7426,4.7446,4.7601,4.7602,4.7603,4.7698,4.7695,4.7843,4.7691,4.7656,4.7678,4.7671,4.7785,4.7798,4.7836,4.8018,4.8025,4.7872,4.7878,4.7883,4.7886,0,0,0,0,0,0,0,4.7416,4.7439,4.767,4.7604,4.7605,4.7588,4.7602,4.7722,4.7749,4.7659,4.7654,4.7671,4.7784,4.7826,4.7839,4.8027,4.7871,4.7881,4.7887,4.7892,4.8358,4.8364,0,0,0,0,0,0,4.7407,4.7432,4.7665,4.7674,4.7499,4.7599,4.7614,4.7673,4.7748,4.7754,4.7676,4.7668,4.781,4.7826,4.7844,4.8052,4.7883,4.7893,4.7899,4.8353,4.836,4.8366,0,0,0,0,0,0,4.7401,4.7429,4.766,4.7552,4.758,4.761,4.7677,4.7678,4.7719,4.776,4.7765,4.7713,4.7806,4.7828,4.797,4.8056,4.7898,4.7907,4.8346,4.8355,4.8363,4.847,0,0,0,0,0,0,4.7392,4.7427,4.7493,4.7554,4.7586,4.7784,4.7682,4.7685,4.7738,4.7729,4.7797,4.7803,4.7804,4.7954,4.7981,4.8068,4.7916,4.8338,4.835,4.836,4.8459,4.8481,4.8501,0,0,0,0,0,4.738,4.7518,4.7496,4.7525,4.7669,4.7789,4.7807,4.7805,4.7745,4.7812,4.7838,4.78,4.8042,4.7969,4.7999,4.809,4.8333,4.8346,4.8359,4.8449,4.8477,4.85,0,0,0,0,0,0,4.7468,4.7526,4.7502,4.7664,4.7722,4.7777,4.7861,4.7834,4.7911,4.79,4.7894,4.791,4.8057,4.8088,4.8006,4.8262,4.8178,4.8198,4.8237,4.8263,4.8284,4.8273,4.7925,0,0,0,0,0,4.7505,4.7597,4.7643,4.7781,4.7812,4.7832,4.7884,4.7877,4.7937,4.7962,4.7998,4.8059,4.8148,4.8207,4.8292,4.8463,4.8477,4.854,4.8561,4.8578,4.8595,4.8687,4.8716,4.841,4.841,4.841,0,0,4.7585,4.7628,4.7687,4.78,4.7844,4.794,4.7853,4.7958,4.8029,4.7978,4.8113,4.8143,4.821,4.8367,4.8438,4.8397,4.8683,4.8595,4.8608,4.8616,4.8704,4.8733,4.8759,4.8419,4.8417,4.8416,0,0,4.7778,4.782,4.7939,4.7985,4.8053,4.8065,4.8094,4.8153,4.817,4.8306,4.8269,4.8354,4.8508,4.8558,4.8603,4.8814,4.8782,4.8842,4.8951,4.9041,4.9065,4.9086,4.9161,4.9189,4.8859,4.8859,4.886,0,4.7869,4.8011,4.8004,4.8112,4.8163,4.812,4.8241,4.8286,4.8378,4.8414,4.8367,4.8559,4.8602,4.8769,4.882,4.8859,4.8891,4.8834,4.9062,4.9083,4.9103,4.9175,4.9203,4.8866,4.8865,4.8865,4.8864,0,4.8118,4.8218,4.8306,4.8394,4.8455,4.8569,4.858,4.8643,4.8631,4.8648,4.8787,4.8836,4.893,4.8969,4.8959,4.9135,4.9107,4.9062,4.8977,4.9139,4.9206,4.9234,4.8876,4.8873,4.8871,4.887,0,0,4.8371,4.8454,4.8487,4.8526,4.8597,4.8674,4.8786,4.8876,4.8929,4.8995,4.9088,4.9219,4.9177,4.9228,4.9223,4.9302,4.9466,4.9246,4.9248,4.9285,4.9663,4.9697,4.9728,4.9445,4.945,4.9454,4.9657,0,4.8569,4.8764,4.8761,4.8942,4.9033,4.8993,4.9091,4.9145,4.9164,4.9245,4.9266,4.9359,4.9296,4.9327,4.9403,4.943,4.9541,4.9415,4.9532,4.9537,4.9516,4.9763,4.98,4.9989,4.9683,4.9688,4.9691,0,4.8827,4.8899,4.9088,4.9145,4.9183,4.927,4.9352,4.943,4.9491,4.9499,4.9556,4.9539,4.9653,4.9565,4.9722,4.9636,4.9684,4.9704,4.9711,4.9722,4.9623,4.9781,5.0049,5.0077,4.9732,4.9729,4.9726,0,4.8992,4.9136,4.9268,4.9303,4.9372,4.9435,4.9467,4.9522,4.9576,4.9648,4.9683,4.9769,4.9815,4.9882,4.9888,4.9823,5.0046,4.9959,5.0056,5.0056,5.0105,5.0102,5.0384,5.0137,5.0136,5.0136,5.0135,0,4.9213,4.933,4.9342,4.9424,4.9554,4.955,4.9679,4.9706,4.9755,4.9841,4.9812,4.9893,4.9896,4.998,4.9985,5.0114,5.0136,5.0146,5.0146,5.0149,5.0147,5.018,5.0167,5.0143,5.0142,5.014,5.0139,0,4.9419,4.9432,4.9573,4.9627,4.9643,4.9737,4.9783,4.986,4.9876,4.9985,5.0011,5.0037,5.0133,5.0145,5.0259,5.0262,5.0418,5.0404,5.0397,5.0395,5.0491,5.0482,5.0805,5.0846,5.0572,5.0574,5.0577,0,4.9559,4.9649,4.9712,4.9766,4.9801,4.989,4.9945,4.9944,5.0003,5.0078,5.0147,5.024,5.0315,5.0471,5.05,5.0587,5.0575,5.0682,5.0588,5.0587,5.0576,5.057,5.0579,5.07,5.0703,5.0706,5.0708,0,4.9807,4.9809,4.9888,4.997,5.0036,5.0101,5.0162,5.0208,5.0215,5.0282,5.038,5.0438,5.0553,5.0646,5.0731,5.0765,5.0738,5.0737,5.0764,5.0767,5.0759,5.0764,5.0446,5.073,5.0727,5.0726,5.0725,5.0724,4.9984,5.0061,5.0117,5.0207,5.0252,5.0309,5.0384,5.0409,5.049,5.0583,5.0578,5.0686,5.0744,5.0855,5.0894,5.0979,5.0944,5.0983,5.0993,5.1003,5.1012,5.0746,5.0995,5.0994,5.0994,5.0993,5.0993,0,5.023,5.0264,5.0346,5.0431,5.0501,5.0469,5.0534,5.0595,5.069,5.0746,5.082,5.0932,5.1022,5.1058,5.1146,5.1207,5.1197,5.123,5.1225,5.1234,5.1039,5.1006,5.1237,5.1237,5.1237,5.1236,5.1236,5.1236,5.0366,5.0494,5.0502,5.0653,5.0686,5.079,5.083,5.0883,5.0927,5.1053,5.1128,5.115,5.1198,5.1289,5.1371,5.1379,5.1413,5.1451,5.1454,5.1272,5.1247,5.1224,5.1193,5.1459,5.1459,5.1642,5.1643,5.1645]},{"header":{"parameterUnit":"m.s-1","parameterCategory":1,"la1":30.2991,"la2":30.254,"lo1":-89.0895,"lo2":-89.0444,"dy":0.0017,"dx":0.0017,"nx":28,"ny":28,"refTime":"2023-08-05T21:00:00:Z","depth":0,"parameterNumber":3,"parameterNumberName":"V-component_of_WINDS"},"data":[0,0,0,0,0,0,0,0,0,0,0,0,0,0,0,0,0,0,0,0,0,0,0,0,0,0,0,0,0,0,0,0,0,0,0,0,0,0,0,0,0,0,0,0,0,0,0,0,0,0,0,0,0,0,0,0,0,0,-0.273,-0.273,0,-0.2791,-0.2792,-0.2793,-0.2834,-0.2834,-0.2834,-0.2835,-0.2899,-0.29,-0.2902,0,0,0,0,0,0,0,0,0,0,0,0,0,-0.2649,-0.265,-0.273,-0.273,-0.2731,-0.2791,-0.2792,-0.2793,-0.2834,-0.2834,-0.2834,-0.2835,-0.2898,-0.29,-0.2902,0,0,0,0,0,0,0,0,0,0,0,0,0,-0.2694,-0.265,-0.2729,-0.2759,-0.2762,-0.2791,-0.2792,-0.2793,-0.2834,-0.2834,-0.2835,-0.2835,-0.2898,-0.29,-0.2902,-0.2907,0,0,-0.2909,-0.2909,0,0,0,0,0,0,0,0,-0.2692,-0.2697,-0.2754,-0.2757,-0.276,-0.2805,-0.2787,-0.2831,-0.2834,-0.2806,-0.2835,-0.2835,-0.2867,-0.2872,-0.2883,-0.291,-0.2913,-0.2909,-0.291,-0.2911,-0.2912,0,0,0,0,0,0,0,-0.2689,-0.2695,-0.2754,-0.2754,-0.2759,-0.2769,-0.2776,-0.2796,-0.2834,-0.2809,-0.2812,-0.2819,-0.2869,-0.288,-0.2885,-0.2914,-0.2909,-0.2911,-0.2912,-0.2913,-0.2949,-0.2948,0,0,0,0,0,0,-0.2681,-0.2692,-0.2752,-0.2756,-0.2726,-0.277,-0.2778,-0.279,-0.2834,-0.2841,-0.2818,-0.282,-0.2877,-0.2882,-0.2887,-0.2896,-0.2911,-0.2913,-0.2914,-0.2949,-0.2949,-0.2948,0,0,0,0,0,0,-0.2679,-0.2686,-0.275,-0.2725,-0.2734,-0.2771,-0.2785,-0.2791,-0.2803,-0.2841,-0.2848,-0.2823,-0.2877,-0.2884,-0.2902,-0.2899,-0.2914,-0.2916,-0.2949,-0.2949,-0.2948,-0.2913,0,0,0,0,0,0,-0.2676,-0.2685,-0.2686,-0.2725,-0.2735,-0.2763,-0.2785,-0.2792,-0.2806,-0.281,-0.2847,-0.2853,-0.2878,-0.2898,-0.2904,-0.2902,-0.2918,-0.295,-0.2949,-0.2949,-0.2915,-0.2912,-0.2909,0,0,0,0,0,-0.2673,-0.2674,-0.2686,-0.2693,-0.2738,-0.2762,-0.2768,-0.2796,-0.2806,-0.2808,-0.2833,-0.2852,-0.2898,-0.29,-0.2906,-0.2905,-0.295,-0.2949,-0.2949,-0.2916,-0.2912,-0.2909,0,0,0,0,0,0,-0.2635,-0.268,-0.2694,-0.2707,-0.2731,-0.2769,-0.2773,-0.2791,-0.2813,-0.2815,-0.2849,-0.2858,-0.2872,-0.2891,-0.2891,-0.2913,-0.2927,-0.2927,-0.29,-0.2896,-0.2893,-0.2888,-0.2919,0,0,0,0,0,-0.2628,-0.2644,-0.2682,-0.269,-0.2701,-0.2735,-0.2747,-0.2766,-0.2792,-0.2803,-0.2829,-0.2853,-0.2874,-0.2886,-0.2907,-0.2918,-0.2927,-0.2921,-0.2918,-0.2915,-0.2915,-0.2923,-0.292,-0.2946,-0.2946,-0.2946,0,0,-0.2614,-0.264,-0.2648,-0.2683,-0.2704,-0.272,-0.2743,-0.2759,-0.2771,-0.2805,-0.2824,-0.2843,-0.2874,-0.2888,-0.2896,-0.2904,-0.291,-0.2914,-0.2911,-0.2913,-0.2922,-0.2919,-0.2917,-0.2945,-0.2945,-0.2945,0,0,-0.2596,-0.2618,-0.2627,-0.2647,-0.2678,-0.2701,-0.2703,-0.2739,-0.2754,-0.2772,-0.2798,-0.2814,-0.2848,-0.2868,-0.2883,-0.2874,-0.2893,-0.288,-0.2864,-0.2871,-0.2869,-0.2868,-0.2864,-0.2863,-0.288,-0.288,-0.288,0,-0.2575,-0.26,-0.263,-0.2644,-0.2659,-0.269,-0.27,-0.2718,-0.2754,-0.2764,-0.2773,-0.2816,-0.2839,-0.2859,-0.2856,-0.2867,-0.2871,-0.2875,-0.2867,-0.2866,-0.2865,-0.2862,-0.2861,-0.2878,-0.2878,-0.2878,-0.2878,0,-0.2572,-0.2589,-0.2593,-0.2626,-0.2642,-0.2654,-0.2686,-0.2698,-0.2717,-0.2738,-0.2758,-0.2786,-0.2813,-0.2819,-0.2837,-0.2842,-0.2846,-0.286,-0.2875,-0.286,-0.2858,-0.2857,-0.2875,-0.2876,-0.2876,-0.2877,0,0,-0.2531,-0.2582,-0.2583,-0.2599,-0.2635,-0.2649,-0.2663,-0.2689,-0.2699,-0.2723,-0.2736,-0.2764,-0.2778,-0.2794,-0.2815,-0.2822,-0.2813,-0.2835,-0.2837,-0.283,-0.282,-0.2809,-0.2807,-0.2826,-0.2826,-0.2826,-0.2818,0,-0.2519,-0.2545,-0.2573,-0.2589,-0.2605,-0.2635,-0.2648,-0.2672,-0.2693,-0.271,-0.2733,-0.2753,-0.2769,-0.2779,-0.2787,-0.2812,-0.2811,-0.2813,-0.2838,-0.2839,-0.2829,-0.2806,-0.2795,-0.2785,-0.2817,-0.2817,-0.2817,0,-0.2508,-0.2531,-0.2548,-0.2584,-0.2592,-0.2602,-0.2628,-0.2644,-0.2673,-0.2688,-0.2706,-0.2729,-0.2746,-0.2759,-0.2783,-0.2783,-0.2795,-0.2809,-0.281,-0.2813,-0.2827,-0.2809,-0.2783,-0.2782,-0.2816,-0.2816,-0.2816,0,-0.2477,-0.2511,-0.2526,-0.2539,-0.2581,-0.2588,-0.2605,-0.2634,-0.2648,-0.2672,-0.2682,-0.2707,-0.272,-0.274,-0.2769,-0.2776,-0.279,-0.2805,-0.2803,-0.2802,-0.2804,-0.2803,-0.278,-0.2812,-0.2812,-0.2812,-0.2812,0,-0.246,-0.2469,-0.2513,-0.2522,-0.2534,-0.2566,-0.2577,-0.2598,-0.2623,-0.2638,-0.2666,-0.2679,-0.2717,-0.2734,-0.2757,-0.2773,-0.278,-0.2792,-0.2798,-0.279,-0.2788,-0.2798,-0.2799,-0.2812,-0.2812,-0.2812,-0.2812,0,-0.2426,-0.2456,-0.2474,-0.2512,-0.2522,-0.2529,-0.2563,-0.2573,-0.2596,-0.2614,-0.262,-0.2656,-0.2678,-0.2709,-0.2741,-0.2757,-0.277,-0.2779,-0.276,-0.2763,-0.2759,-0.2759,-0.2741,-0.274,-0.2772,-0.2772,-0.2772,0,-0.2413,-0.2422,-0.2461,-0.2472,-0.2489,-0.2507,-0.2522,-0.2554,-0.2568,-0.2601,-0.2608,-0.2632,-0.2653,-0.2688,-0.2717,-0.2742,-0.2752,-0.2744,-0.2756,-0.2747,-0.2752,-0.2751,-0.2752,-0.2741,-0.2741,-0.274,-0.274,0,-0.2388,-0.2402,-0.2421,-0.2446,-0.2463,-0.2484,-0.2507,-0.2515,-0.2552,-0.2567,-0.259,-0.2606,-0.2639,-0.2663,-0.2692,-0.2711,-0.2732,-0.2736,-0.2737,-0.2728,-0.2716,-0.2722,-0.2752,-0.2736,-0.2736,-0.2737,-0.2737,-0.2737,-0.2364,-0.2373,-0.2402,-0.2423,-0.2443,-0.2464,-0.2476,-0.25,-0.252,-0.2548,-0.2567,-0.2589,-0.2618,-0.2658,-0.2677,-0.2695,-0.2704,-0.2705,-0.2705,-0.2704,-0.2701,-0.2713,-0.2701,-0.2701,-0.2701,-0.2701,-0.2701,0,-0.2339,-0.236,-0.2379,-0.2409,-0.2426,-0.2444,-0.247,-0.2483,-0.2502,-0.2528,-0.2548,-0.2575,-0.2598,-0.263,-0.2656,-0.2664,-0.2675,-0.267,-0.267,-0.2674,-0.2693,-0.2689,-0.2661,-0.2661,-0.2661,-0.2661,-0.2661,-0.2661,-0.2329,-0.2344,-0.2362,-0.2388,-0.2409,-0.243,-0.2444,-0.2463,-0.2484,-0.2512,-0.2531,-0.2552,-0.258,-0.2608,-0.2631,-0.264,-0.2648,-0.2641,-0.2652,-0.2669,-0.2672,-0.2676,-0.2673,-0.2642,-0.2642,-0.2632,-0.2632,-0.2632]}]]